Precipitable_Water
0.40 0.41 0.42 0.41 0.41 0.40 0.40 0.40 0.40 0.39 0.40 0.40 0.39 0.37 0.37 0.37 0.36 0.36 0.35 0.34 0.33 0.32 0.36 0.38 0.38 0.37 0.38 0.20 0.20 0.32 0.29 0.26 0.28 0.23 0.20 0.18 0.15 0.16 0.14 0.17 0.20 0.18 0.20 0.23 0.29 0.29 0.30
0.41 0.42 0.42 0.44 0.43 0.43 0.43 0.43 0.44 0.44 0.44 0.45 0.43 0.41 0.40 0.39 0.38 0.37 0.36 0.33 0.31 0.31 0.35 0.34 0.34 0.43 0.32 0.16 0.30 0.33 0.31 0.29 0.26 0.23 0.19 0.21 0.19 0.19 0.13 0.11 0.10 0.13 0.15 0.18 0.21 0.23 0.26
0.43 0.43 0.44 0.45 0.45 0.45 0.47 0.48 0.50 0.49 0.48 0.46 0.44 0.42 0.41 0.40 0.37 0.36 0.34 0.32 0.30 0.32 0.35 0.31 0.36 0.39 0.23 0.19 0.35 0.35 0.34 0.32 0.30 0.26 0.21 0.23 0.22 0.19 0.18 0.14 0.16 0.15 0.13 0.15 0.14 0.17 0.18
0.47 0.47 0.48 0.49 0.50 0.51 0.55 0.52 0.48 0.45 0.43 0.42 0.41 0.42 0.41 0.38 0.36 0.34 0.33 0.31 0.30 0.33 0.30 0.33 0.43 0.41 0.19 0.34 0.39 0.34 0.34 0.30 0.31 0.30 0.26 0.25 0.25 0.20 0.16 0.18 0.15 0.12 0.12 0.09 0.09 0.10 0.11
0.53 0.55 0.55 0.55 0.54 0.53 0.49 0.47 0.43 0.42 0.43 0.43 0.42 0.43 0.41 0.38 0.36 0.34 0.32 0.30 0.31 0.33 0.32 0.40 0.44 0.40 0.23 0.39 0.29 0.32 0.34 0.27 0.33 0.32 0.39 0.37 0.31 0.24 0.23 0.16 0.13 0.13 0.10 0.10 0.10 0.12 0.11
0.52 0.51 0.49 0.49 0.48 0.46 0.46 0.43 0.43 0.44 0.43 0.43 0.42 0.43 0.41 0.36 0.34 0.34 0.30 0.33 0.39 0.41 0.37 0.43 0.35 0.32 0.27 0.21 0.26 0.34 0.33 0.36 0.32 0.29 0.31 0.37 0.31 0.23 0.20 0.19 0.14 0.16 0.16 0.16 0.14 0.14 0.15
0.50 0.47 0.47 0.47 0.46 0.46 0.46 0.45 0.45 0.43 0.42 0.42 0.45 0.45 0.39 0.33 0.33 0.35 0.35 0.36 0.38 0.30 0.25 0.22 0.21 0.20 0.21 0.27 0.36 0.32 0.31 0.27 0.26 0.23 0.18 0.22 0.18 0.18 0.25 0.26 0.25 0.22 0.19 0.17 0.16 0.17 0.16
0.49 0.47 0.45 0.46 0.48 0.48 0.49 0.46 0.44 0.41 0.40 0.43 0.46 0.43 0.36 0.30 0.34 0.37 0.40 0.30 0.33 0.34 0.20 0.25 0.25 0.23 0.24 0.26 0.20 0.25 0.30 0.21 0.19 0.14 0.18 0.17 0.16 0.22 0.27 0.24 0.22 0.19 0.18 0.17 0.19 0.18 0.18
0.44 0.46 0.46 0.47 0.46 0.45 0.43 0.46 0.44 0.41 0.40 0.43 0.44 0.41 0.33 0.29 0.37 0.36 0.27 0.25 0.33 0.39 0.27 0.21 0.22 0.20 0.19 0.19 0.21 0.24 0.26 0.22 0.16 0.15 0.16 0.14 0.17 0.20 0.19 0.22 0.19 0.19 0.19 0.19 0.19 0.21 0.20
0.44 0.45 0.47 0.49 0.49 0.46 0.48 0.46 0.44 0.39 0.41 0.44 0.44 0.39 0.31 0.33 0.32 0.38 0.24 0.33 0.37 0.48 0.23 0.21 0.22 0.24 0.18 0.17 0.22 0.21 0.24 0.20 0.19 0.16 0.17 0.16 0.20 0.21 0.21 0.21 0.21 0.18 0.24 0.22 0.21 0.20 0.16
0.48 0.49 0.50 0.52 0.53 0.47 0.44 0.42 0.40 0.39 0.43 0.46 0.42 0.37 0.30 0.41 0.35 0.29 0.28 0.35 0.37 0.48 0.12 0.17 0.17 0.19 0.18 0.17 0.17 0.20 0.21 0.20 0.17 0.19 0.21 0.19 0.21 0.20 0.19 0.18 0.22 0.22 0.27 0.23 0.22 0.17 0.16
0.51 0.54 0.55 0.55 0.52 0.46 0.44 0.42 0.40 0.41 0.44 0.43 0.40 0.37 0.42 0.38 0.37 0.30 0.33 0.40 0.43 0.21 0.08 0.17 0.15 0.15 0.14 0.17 0.18 0.18 0.19 0.23 0.27 0.23 0.22 0.22 0.24 0.27 0.29 0.27 0.24 0.26 0.27 0.26 0.27 0.21 0.16
0.57 0.54 0.54 0.55 0.49 0.46 0.44 0.40 0.40 0.42 0.44 0.42 0.41 0.39 0.41 0.43 0.36 0.39 0.42 0.40 0.19 0.13 0.11 0.14 0.13 0.14 0.13 0.18 0.16 0.17 0.17 0.19 0.20 0.15 0.14 0.15 0.21 0.33 0.35 0.27 0.24 0.22 0.25 0.18 0.15 0.14 0.16
0.55 0.54 0.53 0.51 0.48 0.45 0.44 0.43 0.42 0.43 0.43 0.40 0.41 0.44 0.43 0.44 0.45 0.44 0.45 0.26 0.11 0.12 0.14 0.16 0.14 0.14 0.14 0.17 0.17 0.17 0.17 0.16 0.26 0.21 0.15 0.13 0.09 0.21 0.25 0.24 0.18 0.21 0.22 0.21 0.13 0.15 0.15
0.54 0.51 0.50 0.50 0.47 0.46 0.46 0.45 0.45 0.44 0.41 0.38 0.44 0.47 0.46 0.41 0.46 0.51 0.37 0.15 0.12 0.15 0.17 0.13 0.14 0.12 0.13 0.16 0.18 0.17 0.17 0.18 0.21 0.22 0.13 0.13 0.12 0.19 0.20 0.21 0.23 0.23 0.17 0.23 0.20 0.19 0.15
0.54 0.53 0.49 0.48 0.48 0.48 0.49 0.48 0.47 0.45 0.40 0.39 0.41 0.45 0.36 0.39 0.49 0.47 0.28 0.16 0.17 0.19 0.16 0.15 0.13 0.14 0.11 0.14 0.14 0.15 0.15 0.19 0.18 0.21 0.21 0.16 0.11 0.16 0.17 0.19 0.20 0.26 0.30 0.18 0.22 0.14 0.13
0.60 0.55 0.55 0.52 0.51 0.52 0.52 0.51 0.50 0.45 0.39 0.37 0.38 0.37 0.47 0.41 0.49 0.34 0.15 0.18 0.19 0.19 0.18 0.16 0.16 0.14 0.15 0.15 0.16 0.15 0.15 0.18 0.23 0.20 0.21 0.18 0.18 0.15 0.17 0.15 0.15 0.16 0.18 0.24 0.26 0.22 0.15
0.54 0.53 0.50 0.49 0.50 0.48 0.50 0.52 0.49 0.45 0.38 0.37 0.33 0.28 0.44 0.46 0.29 0.25 0.21 0.20 0.21 0.19 0.20 0.19 0.18 0.18 0.17 0.17 0.15 0.15 0.15 0.17 0.25 0.21 0.15 0.22 0.20 0.12 0.13 0.15 0.18 0.20 0.24 0.23 0.17 0.16 0.18
0.55 0.52 0.50 0.49 0.49 0.48 0.50 0.49 0.46 0.44 0.41 0.38 0.32 0.33 0.36 0.41 0.18 0.21 0.22 0.19 0.21 0.20 0.19 0.21 0.19 0.20 0.19 0.17 0.15 0.17 0.18 0.21 0.21 0.22 0.20 0.20 0.15 0.11 0.10 0.12 0.27 0.25 0.23 0.23 0.22 0.19 0.15
0.52 0.50 0.49 0.49 0.48 0.47 0.48 0.48 0.48 0.44 0.41 0.41 0.33 0.18 0.30 0.33 0.36 0.27 0.22 0.21 0.21 0.22 0.21 0.22 0.19 0.20 0.19 0.19 0.21 0.18 0.18 0.21 0.22 0.21 0.23 0.22 0.17 0.15 0.11 0.13 0.16 0.15 0.17 0.18 0.17 0.14 0.14
0.52 0.52 0.52 0.50 0.50 0.51 0.49 0.48 0.48 0.44 0.41 0.42 0.36 0.22 0.31 0.19 0.21 0.25 0.27 0.23 0.20 0.21 0.21 0.22 0.20 0.21 0.20 0.17 0.17 0.17 0.19 0.19 0.20 0.21 0.21 0.19 0.15 0.16 0.14 0.16 0.15 0.14 0.13 0.15 0.15 0.16 0.14
0.51 0.50 0.50 0.49 0.51 0.50 0.51 0.49 0.48 0.44 0.42 0.40 0.22 0.25 0.26 0.28 0.27 0.25 0.26 0.24 0.21 0.22 0.22 0.20 0.21 0.23 0.22 0.19 0.19 0.16 0.18 0.18 0.17 0.18 0.17 0.19 0.14 0.17 0.14 0.18 0.18 0.17 0.18 0.18 0.16 0.15 0.13
0.53 0.53 0.52 0.51 0.51 0.50 0.52 0.50 0.48 0.46 0.45 0.39 0.38 0.35 0.30 0.27 0.24 0.23 0.26 0.25 0.23 0.24 0.24 0.24 0.23 0.22 0.21 0.22 0.24 0.23 0.22 0.20 0.18 0.16 0.16 0.17 0.15 0.17 0.12 0.18 0.18 0.14 0.17 0.18 0.19 0.20 0.17
0.54 0.54 0.54 0.53 0.52 0.52 0.52 0.50 0.48 0.47 0.47 0.43 0.41 0.37 0.29 0.19 0.22 0.25 0.26 0.26 0.25 0.23 0.23 0.26 0.26 0.24 0.28 0.30 0.25 0.21 0.20 0.18 0.18 0.18 0.20 0.16 0.17 0.18 0.15 0.18 0.11 0.16 0.17 0.25 0.31 0.34 0.35
0.53 0.53 0.52 0.52 0.54 0.53 0.51 0.48 0.47 0.47 0.46 0.45 0.44 0.37 0.30 0.20 0.25 0.26 0.27 0.25 0.25 0.26 0.25 0.25 0.26 0.31 0.31 0.24 0.19 0.13 0.16 0.14 0.14 0.16 0.18 0.21 0.19 0.19 0.14 0.13 0.14 0.20 0.22 0.22 0.24 0.25 0.34
0.51 0.50 0.48 0.48 0.50 0.53 0.50 0.48 0.46 0.47 0.48 0.45 0.47 0.45 0.36 0.24 0.22 0.29 0.29 0.30 0.27 0.28 0.29 0.30 0.34 0.34 0.30 0.24 0.18 0.12 0.12 0.16 0.13 0.14 0.18 0.19 0.21 0.19 0.17 0.12 0.10 0.20 0.31 0.30 0.23 0.19 0.34
0.48 0.47 0.46 0.46 0.47 0.51 0.51 0.47 0.46 0.47 0.50 0.47 0.47 0.49 0.39 0.26 0.28 0.32 0.30 0.30 0.33 0.31 0.30 0.32 0.29 0.27 0.31 0.22 0.17 0.16 0.15 0.19 0.15 0.15 0.16 0.15 0.16 0.14 0.15 0.16 0.17 0.26 0.27 0.21 0.15 0.23 0.33
0.48 0.46 0.44 0.45 0.49 0.50 0.49 0.47 0.47 0.48 0.50 0.49 0.47 0.54 0.42 0.32 0.31 0.37 0.36 0.33 0.33 0.32 0.27 0.32 0.27 0.27 0.26 0.19 0.19 0.19 0.18 0.18 0.17 0.18 0.16 0.16 0.15 0.15 0.17 0.17 0.14 0.30 0.23 0.19 0.25 0.27 0.32
0.49 0.48 0.44 0.48 0.50 0.49 0.47 0.45 0.44 0.48 0.52 0.54 0.44 0.57 0.56 0.42 0.37 0.46 0.43 0.42 0.41 0.41 0.38 0.35 0.27 0.30 0.28 0.23 0.24 0.24 0.20 0.21 0.17 0.14 0.19 0.16 0.19 0.16 0.21 0.19 0.24 0.21 0.24 0.28 0.26 0.27 0.32
Wind_Speed
5 3 2 3 4 5 6 6 6 6 7 8 8 9 10 10 11 11 11 12 12 12 12 12 12 11 10 7 10 13 14 15 15 16 17 18 20 20 22 24 25 29 30 31 30 31 32
6 5 4 4 5 5 7 7 8 8 8 9 10 10 11 12 12 13 13 13 12 12 11 10 8 8 8 8 12 14 15 16 17 18 20 20 22 25 27 29 30 32 34 35 35 35 34
7 6 5 5 6 6 7 7 8 8 8 9 10 11 11 12 12 12 12 12 10 8 8 8 7 8 7 10 13 15 17 18 20 21 23 24 26 27 30 32 32 34 37 38 39 39 40
8 7 6 5 5 6 7 7 7 7 8 8 9 10 10 11 11 11 10 9 7 7 7 7 8 9 9 11 13 15 18 18 21 22 24 27 28 30 32 34 37 38 39 41 41 39 41
9 8 6 5 5 6 7 7 7 7 7 8 9 10 10 10 10 10 8 7 6 6 6 7 9 10 9 12 14 16 18 21 24 25 27 27 28 30 32 34 36 36 39 42 43 38 38
10 9 8 7 6 6 6 6 5 6 7 8 8 9 9 9 9 9 7 5 6 6 7 8 9 8 10 13 15 17 20 23 24 27 28 27 29 32 32 31 33 33 34 36 37 34 33
12 10 9 7 7 6 5 5 6 7 8 8 8 9 9 9 9 8 5 5 6 5 7 7 8 7 11 15 15 17 23 25 26 27 27 30 31 30 29 30 31 32 34 38 39 39 39
13 11 10 8 7 7 6 6 6 7 8 9 9 9 9 7 7 6 5 5 5 6 5 7 6 8 12 16 17 19 24 24 28 29 30 30 28 27 25 26 27 28 30 33 35 36 37
14 12 10 9 8 7 7 7 6 7 8 8 8 8 7 5 5 5 5 5 5 6 7 7 8 11 14 18 19 20 25 26 28 29 29 27 26 26 25 23 24 25 26 27 30 31 35
15 13 12 11 10 8 7 7 7 7 7 7 7 7 5 4 5 4 5 7 6 6 6 7 8 11 15 20 16 23 23 26 27 28 28 23 22 24 23 23 23 26 24 26 27 26 27
16 14 13 12 10 9 8 8 7 7 7 6 6 6 5 4 5 5 6 7 6 7 7 7 9 14 18 18 20 16 26 25 27 28 25 23 24 23 23 24 23 23 24 25 28 28 29
18 16 15 13 12 10 9 8 8 7 6 6 7 6 5 4 4 5 7 6 6 7 6 8 12 14 18 17 21 22 25 25 26 26 24 22 22 20 22 19 21 20 19 23 25 23 23
18 16 16 14 13 11 10 9 8 7 7 7 6 5 5 5 5 6 6 6 7 7 8 8 12 16 18 17 20 23 25 25 23 25 24 24 15 12 12 16 15 17 13 12 11 12 14
18 17 16 15 13 12 10 9 9 8 7 7 6 6 5 5 6 7 7 7 7 7 9 10 13 17 14 17 19 22 22 23 23 24 23 19 17 13 17 18 21 19 16 10 12 9 17
19 18 17 16 14 13 11 10 9 8 8 7 7 6 6 7 7 7 8 7 6 8 9 12 15 14 13 14 17 21 23 20 21 20 18 20 17 25 21 18 17 16 16 18 18 21 18
20 18 17 16 15 13 12 11 10 9 9 8 8 8 7 7 7 9 7 7 6 8 9 10 11 12 15 18 19 21 22 20 19 19 20 20 25 19 18 20 16 12 15 11 10 11 10
20 19 18 17 16 14 13 12 11 10 9 9 9 9 9 8 9 7 7 8 7 7 9 11 12 14 15 18 18 20 20 20 18 20 20 24 19 19 20 17 19 18 16 12 12 13 12
20 19 18 17 16 15 13 13 12 11 10 10 10 9 9 9 9 9 8 8 10 7 9 10 12 14 15 17 18 19 20 19 18 21 23 18 17 20 23 22 20 13 8 10 11 13 16
20 19 18 17 16 15 14 13 12 11 10 10 10 9 10 10 9 10 8 9 10 9 10 10 12 13 14 16 17 17 19 20 22 21 21 21 17 24 20 15 7 10 16 14 16 19 21
20 20 18 18 17 16 14 14 13 12 11 11 10 11 11 12 13 11 10 11 10 11 12 12 13 15 15 16 18 18 22 23 23 21 21 21 22 20 20 20 22 25 23 22 21 19 22
21 20 19 18 17 16 15 15 14 13 13 12 11 12 11 11 12 12 11 11 11 10 12 12 13 14 15 17 20 21 22 23 25 24 22 19 17 18 20 21 22 24 25 26 25 25 24
21 20 20 19 18 17 17 15 15 14 14 13 12 11 12 13 11 13 10 12 13 13 12 13 14 15 17 19 20 23 24 23 23 22 18 15 16 19 22 21 23 25 25 25 26 27 28
22 21 21 20 20 19 18 17 16 16 15 14 13 13 13 14 13 13 14 13 13 14 13 15 17 17 18 20 22 23 23 23 22 21 20 20 18 18 20 20 23 17 15 15 17 18 19
23 22 22 21 21 20 19 19 18 18 17 15 15 14 13 14 15 15 14 15 15 14 16 15 15 18 18 21 23 23 22 21 20 19 17 17 17 17 19 20 13 18 10 11 10 4 7
24 24 23 22 21 21 20 20 19 19 18 17 16 15 14 15 16 17 17 15 16 17 17 18 18 16 19 20 19 18 15 16 16 16 15 15 15 14 12 15 17 12 10 7 7 9 10
24 24 24 23 22 22 21 21 20 20 19 19 17 17 16 16 16 18 17 18 17 17 17 17 14 15 16 16 16 15 15 14 14 15 15 14 12 13 16 15 10 6 12 16 14 10 14
23 23 24 23 24 22 22 21 21 21 20 20 18 18 17 17 19 18 16 17 17 17 16 16 17 16 15 15 15 16 17 17 15 13 13 12 12 14 15 14 12 10 16 18 11 10 14
22 21 21 21 22 22 21 21 20 21 21 21 19 20 19 19 21 21 21 20 20 18 16 15 16 15 14 15 15 16 16 16 17 18 18 16 15 14 14 11 12 13 19 15 15 18 15
21 20 20 21 20 21 21 21 20 21 21 21 20 20 21 21 20 19 21 22 23 22 20 19 17 14 15 15 16 16 17 17 19 19 19 18 17 15 14 15 22 24 20 20 20 20 19
Wind_Direction
217 241 259 296 316 331 325 332 328 319 316 316 316 314 312 312 311 309 306 304 302 301 299 299 297 292 284 277 292 296 300 297 295 293 289 288 283 283 275 277 276 267 265 265 264 264 264
223 236 255 280 302 315 315 322 319 314 308 309 310 310 308 307 307 306 303 301 301 299 298 299 298 302 277 275 294 301 300 299 299 296 291 289 284 284 276 272 268 270 271 268 267 265 264
227 237 252 274 293 302 309 318 321 319 314 309 309 310 311 310 309 307 306 304 303 300 303 303 296 300 327 300 299 304 303 297 298 296 293 290 288 283 283 278 272 272 271 268 263 263 262
229 237 250 269 287 298 310 315 320 323 327 323 319 318 318 318 316 315 312 309 305 303 303 303 301 302 300 306 302 308 309 305 304 300 296 292 287 284 278 276 275 272 268 267 264 263 260
228 233 243 263 278 293 309 315 313 316 322 323 321 322 323 322 321 319 317 314 308 311 306 305 308 304 310 310 312 312 314 311 308 303 297 295 291 285 282 277 275 269 267 266 267 262 262
226 235 246 256 268 282 298 314 322 322 323 323 322 324 326 325 324 321 315 307 322 316 310 308 309 308 327 318 316 314 318 314 311 308 306 294 292 291 282 275 274 279 275 272 271 269 271
227 232 240 248 259 269 285 299 311 318 322 322 322 323 325 324 327 324 316 310 313 321 350 349 336 339 330 328 319 319 324 319 318 314 311 304 297 291 293 287 284 281 278 272 269 268 269
225 230 237 241 250 262 271 285 301 312 318 320 322 322 324 326 335 338 322 309 327 321 340 341 338 339 331 328 325 327 331 327 322 319 315 309 300 295 289 288 285 280 277 275 273 269 265
227 227 230 235 245 260 263 273 287 305 316 320 324 328 329 325 331 344 5 347 325 323 317 337 333 336 334 330 329 326 331 329 326 322 319 311 301 296 288 288 285 281 282 283 281 278 271
223 225 229 237 245 256 257 263 277 296 312 317 322 326 327 318 323 322 340 334 325 325 323 334 326 331 331 331 325 328 334 333 329 325 321 310 306 300 296 288 285 286 288 283 282 280 274
224 227 231 236 240 246 253 258 269 284 302 308 316 321 320 314 314 323 320 324 317 317 318 319 331 329 331 336 330 344 335 333 330 328 319 309 304 298 290 286 289 289 295 291 283 277 277
226 231 232 233 236 242 248 253 261 271 290 302 309 309 306 301 314 314 315 317 314 306 319 315 324 330 332 334 335 332 336 334 335 335 323 315 310 310 294 297 291 290 299 297 282 276 270
225 228 228 227 233 241 243 246 254 263 278 293 299 298 303 305 295 310 307 305 314 322 311 318 325 328 330 339 336 339 339 340 341 337 333 323 319 318 328 309 296 296 286 294 281 275 272
223 226 225 227 232 235 236 241 249 260 271 283 287 289 298 302 303 305 301 310 308 304 304 322 321 323 324 336 339 338 337 339 346 342 331 331 320 318 323 300 298 294 289 289 291 297 287
224 225 225 227 229 229 232 237 246 257 264 271 277 280 283 296 299 299 295 308 297 302 318 322 317 322 330 336 333 337 337 342 343 346 341 325 316 311 306 298 302 293 288 290 281 281 273
219 220 220 222 224 226 232 237 244 254 261 265 270 266 284 291 295 296 299 297 295 310 313 316 324 331 329 334 335 336 338 335 336 341 335 324 316 313 307 307 292 291 296 290 273 271 279
217 218 220 222 225 229 233 237 242 250 258 261 263 265 278 283 292 296 289 291 296 300 311 317 323 321 325 329 329 330 332 338 336 333 329 326 319 311 310 307 298 290 294 282 270 259 266
217 218 219 222 224 227 232 234 241 247 255 254 262 269 274 279 283 286 286 290 299 289 303 313 317 318 322 329 328 330 328 332 338 330 328 334 319 313 308 301 292 283 274 291 278 280 270
214 216 218 220 224 228 230 234 239 245 251 259 262 269 272 275 280 277 276 285 290 289 293 305 312 318 323 324 330 330 330 330 328 332 329 330 324 320 313 307 301 283 286 271 268 273 269
216 216 219 222 224 227 233 236 239 243 247 255 263 269 276 278 277 267 271 277 283 287 294 299 307 314 316 317 320 322 322 325 327 327 325 317 309 307 304 297 292 285 281 276 269 268 276
217 219 221 223 226 229 234 238 240 244 246 256 264 265 267 275 272 270 273 280 276 283 285 297 306 301 311 318 321 318 322 325 322 321 323 321 315 313 305 300 296 289 282 276 270 266 262
218 221 224 226 228 232 235 239 241 243 247 255 260 264 269 276 272 263 269 282 276 279 290 292 288 305 313 314 315 317 319 322 324 329 327 329 321 317 308 306 302 295 287 278 272 272 270
222 224 228 230 232 235 238 241 242 244 246 256 263 269 271 274 270 268 267 275 280 280 287 288 297 303 308 312 317 317 316 314 312 314 317 317 317 318 310 318 316 309 294 285 283 283 273
227 229 231 234 235 238 238 241 243 245 246 256 264 267 267 270 265 266 272 277 274 278 279 290 293 299 309 315 313 312 310 308 306 305 308 309 312 316 315 316 324 323 310 330 331 318 333
231 232 234 236 238 238 240 242 244 245 248 254 260 265 265 269 271 269 270 273 277 280 279 283 289 301 311 314 317 321 320 326 321 309 306 300 308 321 322 323 317 336 338 326 305 299 313
232 233 236 238 239 240 242 243 245 245 247 252 260 260 264 269 269 272 277 273 276 279 282 281 292 299 308 312 313 315 320 328 325 327 317 304 302 304 310 313 312 303 327 303 299 283 315
232 235 238 241 239 241 242 243 246 245 247 250 259 259 264 267 270 276 274 276 279 280 284 288 289 294 304 303 305 306 304 306 315 318 321 316 309 298 297 297 296 327 322 317 311 298 300
232 235 239 240 238 238 240 244 246 246 248 249 258 257 262 268 271 273 273 275 275 276 276 282 292 284 294 294 302 306 307 309 309 303 304 302 302 297 296 288 287 322 314 318 298 298 297
231 235 240 237 236 238 241 246 250 249 248 248 257 260 262 267 271 277 275 273 272 273 276 273 276 286 284 291 297 303 301 305 305 304 302 299 297 296 284 285 298 302 296 302 304 298 291